Kokomo, IN

3:32 PM EST on February 24, 2017 (GMT -0500)
Kokomo Municipal

Weather History for KOKK - June, 2013

Change the Weather History Date:

Thursday, June 13, 2013

  Actual Average (KGUS) Record (KGUS)
Temperature  
Mean Temperature 68 °F -  
Max Temperature 77 °F 77 °F 91 °F (2001)
Min Temperature 60 °F 61 °F 50 °F (2012)
Cooling Degree Days 4    
Growing Degree Days 18 (Base 50)    
Moisture  
Dew Point 59 °F    
Average Humidity 73    
Maximum Humidity 94    
Minimum Humidity 47    
Precipitation  
Precipitation 1.04 in - - ()
Sea Level Pressure  
Sea Level Pressure 29.82 in    
Wind  
Wind Speed 11 mph (NNW)    
Max Wind Speed 22 mph    
Max Gust Speed 30 mph    
Visibility 10 miles    
Events Thunderstorm    
Averages and records for this station are not official NWS values.
T = Trace of Precipitation, MM = Missing Value Source: NWS Daily Summary

Daily Weather History Graph

Daily Weather History Graph

Search for Another Location

Airport or City:

Trip Planner

Search our weather history database for the weather conditions in past years. The results will help you decide how hot, cold, wet, or windy it might be!

Date:

Astronomy

Jun. 13, 2013 Rise Set
Actual Time 5:13 AM CDT 8:15 PM CDT
Civil Twilight 4:39 AM CDT 8:49 PM CDT
Nautical Twilight 3:57 AM CDT 9:31 PM CDT
Astronomical Twilight 3:08 AM CDT 10:20 PM CDT
Moon 9:50 AM CDT (6/13) 11:21 PM CDT (6/13)
Length of Visible Light 16h 09m
Length of Day
15h 02m
Waxing Crescent, 22% of the Moon is Illuminated
Jun 13
Waxing Crescent
Jun 16
First Quarter
Jun 23
Full
Jun 29
Last Quarter
Jul 8
New

Hourly Weather History & Observations

Time (CDT) Temp. Dew Point Humidity Pressure Visibility Wind Dir Wind Speed Gust Speed Precip Events Conditions
12:15 AM 68.0 °F 64.4 °F 88% 29.64 in 8.0 mi SE 6.9 mph - 0.07 in Thunderstorm Thunderstorm
12:35 AM 66.2 °F 64.4 °F 94% 29.64 in 9.0 mi SE 6.9 mph - 0.34 in Thunderstorm Thunderstorm
12:55 AM 68.0 °F 66.2 °F 94% 29.64 in 5.0 mi SW 3.5 mph - 0.61 in Thunderstorm Thunderstorm
1:15 AM 68.0 °F 66.2 °F 94% 29.67 in 10.0 mi North 11.5 mph - 0.05 in Thunderstorm Mostly Cloudy
1:35 AM 68.0 °F 66.2 °F 94% 29.66 in 6.0 mi SW 5.8 mph - 0.31 in Thunderstorm Thunderstorm
1:55 AM 68.0 °F 66.2 °F 94% 29.63 in 10.0 mi North 9.2 mph - 0.32 in   Scattered Clouds
2:15 AM 68.0 °F 66.2 °F 94% 29.63 in 10.0 mi WSW 6.9 mph - N/A   Partly Cloudy
2:35 AM 68.0 °F 66.2 °F 94% 29.62 in 10.0 mi WSW 5.8 mph - N/A   Scattered Clouds
2:55 AM 68.0 °F 64.4 °F 88% 29.61 in 10.0 mi SSW 5.8 mph - N/A   Partly Cloudy
3:15 AM 68.0 °F 66.2 °F 94% 29.62 in 10.0 mi SW 6.9 mph - N/A   Scattered Clouds
3:35 AM 68.0 °F 66.2 °F 94% 29.63 in 10.0 mi West 4.6 mph - N/A   Scattered Clouds
3:55 AM 68.0 °F 66.2 °F 94% 29.64 in 9.0 mi West 3.5 mph - N/A   Partly Cloudy
4:15 AM 66.2 °F 64.4 °F 94% 29.64 in 8.0 mi NW 5.8 mph - N/A   Clear
4:35 AM 66.2 °F 64.4 °F 94% 29.65 in 7.0 mi NNW 9.2 mph - N/A   Partly Cloudy
4:55 AM 66.2 °F 64.4 °F 94% 29.65 in 6.0 mi North 11.5 mph - N/A   Mostly Cloudy
5:15 AM 66.2 °F 64.4 °F 94% 29.65 in 4.0 mi North 6.9 mph - N/A   Overcast
5:35 AM 66.2 °F 64.4 °F 94% 29.67 in 5.0 mi NNW 9.2 mph - N/A   Overcast
5:55 AM 66.2 °F 64.4 °F 94% 29.69 in 9.0 mi NW 10.4 mph - 0.04 in   Overcast
6:15 AM 66.2 °F 64.4 °F 94% 29.70 in 10.0 mi NNW 11.5 mph - 0.04 in   Overcast
6:35 AM 66.2 °F 64.4 °F 94% 29.71 in 10.0 mi NW 11.5 mph - 0.07 in   Overcast
6:55 AM 66.2 °F 62.6 °F 88% 29.72 in 10.0 mi NNW 10.4 mph - 0.07 in   Overcast
7:15 AM 64.4 °F 62.6 °F 94% 29.72 in 10.0 mi North 11.5 mph - N/A   Overcast
7:35 AM 64.4 °F 62.6 °F 94% 29.73 in 10.0 mi NNW 10.4 mph - N/A   Overcast
7:55 AM 64.4 °F 62.6 °F 94% 29.74 in 10.0 mi NNW 10.4 mph - N/A   Overcast
8:15 AM 66.2 °F 62.6 °F 88% 29.75 in 10.0 mi NNW 12.7 mph - N/A   Overcast
8:35 AM 66.2 °F 62.6 °F 88% 29.76 in 10.0 mi NNW 13.8 mph - N/A   Overcast
8:55 AM 66.2 °F 62.6 °F 88% 29.77 in 7.0 mi North 15.0 mph 18.4 mph N/A   Overcast
9:15 AM 66.2 °F 62.6 °F 88% 29.79 in 10.0 mi North 11.5 mph 18.4 mph N/A   Overcast
9:35 AM 66.2 °F 62.6 °F 88% 29.80 in 10.0 mi North 15.0 mph - N/A   Overcast
9:55 AM 68.0 °F 62.6 °F 83% 29.80 in 10.0 mi North 16.1 mph 21.9 mph N/A   Mostly Cloudy
10:15 AM 69.8 °F 59.0 °F 68% 29.82 in 10.0 mi NNE 18.4 mph - N/A   Mostly Cloudy
10:35 AM 69.8 °F 57.2 °F 64% 29.83 in 10.0 mi NNE 15.0 mph - N/A   Overcast
10:55 AM 69.8 °F 59.0 °F 68% 29.84 in 10.0 mi NNE 16.1 mph - N/A   Overcast
11:15 AM 71.6 °F 59.0 °F 64% 29.84 in 10.0 mi North 13.8 mph - N/A   Scattered Clouds
11:35 AM 73.4 °F 59.0 °F 61% 29.85 in 10.0 mi North 18.4 mph 24.2 mph N/A   Clear
11:55 AM 75.2 °F 59.0 °F 57% 29.85 in 10.0 mi NNE 16.1 mph - N/A   Clear
12:15 PM 75.2 °F 59.0 °F 57% 29.85 in 10.0 mi North 11.5 mph - N/A   Clear
12:35 PM 75.2 °F 59.0 °F 57% 29.85 in 10.0 mi North 15.0 mph - N/A   Clear
12:55 PM 75.2 °F 59.0 °F 57% 29.86 in 10.0 mi NNW 13.8 mph - N/A   Scattered Clouds
1:15 PM 77.0 °F 59.0 °F 54% 29.86 in 10.0 mi North 15.0 mph 19.6 mph N/A   Scattered Clouds
1:35 PM 75.2 °F 57.2 °F 53% 29.87 in 10.0 mi NNW 17.3 mph 24.2 mph N/A   Scattered Clouds
1:55 PM 77.0 °F 57.2 °F 50% 29.87 in 10.0 mi NW 19.6 mph 25.3 mph N/A   Scattered Clouds
2:15 PM 77.0 °F 57.2 °F 50% 29.88 in 10.0 mi NNW 17.3 mph 25.3 mph N/A   Scattered Clouds
2:35 PM 75.2 °F 55.4 °F 50% 29.88 in 10.0 mi NNW 19.6 mph 27.6 mph N/A   Clear
2:55 PM 77.0 °F 55.4 °F 47% 29.89 in 10.0 mi NNW 18.4 mph 24.2 mph N/A   Clear
3:15 PM 75.2 °F 53.6 °F 47% 29.89 in 10.0 mi NW 19.6 mph 29.9 mph N/A   Partly Cloudy
3:35 PM 75.2 °F 55.4 °F 50% 29.89 in 10.0 mi NNW 21.9 mph 28.8 mph N/A   Partly Cloudy
3:55 PM 75.2 °F 53.6 °F 47% 29.90 in 10.0 mi NNW 20.7 mph 27.6 mph N/A   Clear
4:15 PM 75.2 °F 55.4 °F 50% 29.90 in 10.0 mi NW 21.9 mph 28.8 mph N/A   Clear
4:35 PM 75.2 °F 55.4 °F 50% 29.90 in 10.0 mi NNW 20.7 mph 27.6 mph N/A   Clear
4:55 PM 73.4 °F 55.4 °F 53% 29.91 in 10.0 mi NNW 20.7 mph 29.9 mph N/A   Clear
5:15 PM 73.4 °F 55.4 °F 53% 29.91 in 10.0 mi NNW 18.4 mph 26.5 mph N/A   Clear
5:35 PM 71.6 °F 55.4 °F 57% 29.91 in 10.0 mi NNW 21.9 mph 27.6 mph N/A   Clear
5:55 PM 71.6 °F 53.6 °F 53% 29.91 in 10.0 mi NNW 16.1 mph 24.2 mph N/A   Clear
6:15 PM 71.6 °F 55.4 °F 57% 29.92 in 10.0 mi NNW 18.4 mph 25.3 mph N/A   Clear
6:35 PM 71.6 °F 53.6 °F 53% 29.92 in 10.0 mi NNW 19.6 mph 25.3 mph N/A   Clear
6:55 PM 69.8 °F 53.6 °F 56% 29.93 in 10.0 mi NNW 10.4 mph 25.3 mph N/A   Clear
7:15 PM 69.8 °F 53.6 °F 56% 29.93 in 10.0 mi NNW 16.1 mph - N/A   Clear
7:35 PM 68.0 °F 53.6 °F 60% 29.94 in 10.0 mi NNW 17.3 mph 23.0 mph N/A   Clear
7:55 PM 66.2 °F 51.8 °F 60% 29.94 in 10.0 mi NNW 13.8 mph 20.7 mph N/A   Clear
8:15 PM 64.4 °F 51.8 °F 64% 29.95 in 10.0 mi NW 10.4 mph - N/A   Clear
8:35 PM 64.4 °F 51.8 °F 64% 29.96 in 10.0 mi NNW 10.4 mph - N/A   Clear
8:55 PM 64.4 °F 51.8 °F 64% 29.96 in 10.0 mi NNW 12.7 mph - N/A   Clear
9:15 PM 64.4 °F 51.8 °F 64% 29.96 in 10.0 mi NNW 12.7 mph - N/A   Clear
9:35 PM 62.6 °F 51.8 °F 68% 29.97 in 10.0 mi NW 10.4 mph - N/A   Clear
9:55 PM 62.6 °F 53.6 °F 72% 29.97 in 10.0 mi NW 10.4 mph - N/A   Clear
10:15 PM 62.6 °F 51.8 °F 68% 29.98 in 10.0 mi NW 13.8 mph - N/A   Clear
10:35 PM 62.6 °F 51.8 °F 68% 29.97 in 10.0 mi NW 10.4 mph - N/A   Clear
10:55 PM 60.8 °F 51.8 °F 72% 29.97 in 10.0 mi NW 10.4 mph - N/A   Clear
11:15 PM 60.8 °F 51.8 °F 72% 29.97 in 10.0 mi NNW 11.5 mph - N/A   Clear
11:35 PM 60.8 °F 51.8 °F 72% 29.98 in 10.0 mi North 9.2 mph - N/A   Clear
11:55 PM 60.8 °F 51.8 °F 72% 29.97 in 10.0 mi NNW 10.4 mph - N/A   Clear